Tracking 28081 objects as of 27-Sep-2023
HD Live streaming from Space Station
objects crossing your sky now

THEA

Track THEA now!
10-day predictions


NORAD ID: 43796
Int'l Code: 2018-099AQ
Perigee: 555.0 km
Apogee: 576.7 km
Inclination: 97.6 °
Period: 95.8 minutes
Semi major axis: 6936 km
RCS: Unknown
Launch date: December 3, 2018
Source: United States (US)
Launch site: AIR FORCE WESTERN TEST RANGE (AFWTR)
Your satellite tracking list
Your tracking list is empty




NASA's NSSDC Master Catalog

Two Line Element Set (TLE):
1 43796U 18099AQ  23269.65359836  .00011696  00000-0  87881-3 0  9991
2 43796  97.5868 331.9836 0015625 137.6411 222.6024 15.02643991261916
Source of the keplerian elements: AFSPC